Change the Weather History Date:

Thursday, October 25, 2012

  Actual Average Record
Temperature  
Mean Temperature 48 °F 56 °F  
Max Temperature 56 °F 64 °F 82 °F (2013)
Min Temperature 40 °F 49 °F 33 °F (1970)
Degree Days  
Heating Degree Days 17 9  
Month to date heating degree days 164 162  
Since 1 July heating degree days 169 240  
Cooling Degree Days 0 1  
Month to date cooling degree days 64 47  
Year to date cooling degree days 1345 993  
Moisture  
Dew Point 33 °F    
Average Humidity 59    
Maximum Humidity 79    
Minimum Humidity 38    
Precipitation  
Precipitation 0.00 in 0.03 in 1.24 in (1940)
Month to date precipitation 0.02 0.45  
Year to date precipitation 4.36 9.15  
Since 1 July precipitation 0.09 0.67  
Sea Level Pressure  
Sea Level Pressure 30.12 in    
Wind  
Wind Speed 17 mph (North)    
Max Wind Speed 35 mph    
Max Gust Speed 40 mph    
Visibility 10 miles    
Events      
T = Trace of Precipitation, MM = Missing Value Source: NWS Daily Summary

Daily Weather History Graph

Daily Weather History Graph

Search for Another Location

Airport or City:

Trip Planner

Search our weather history database for the weather conditions in past years. The results will help you decide how hot, cold, wet, or windy it might be!

Date:

Astronomy

Oct. 25, 2012 Rise Set
Actual Time 7:09 AM PDT 6:07 PM PDT
Civil Twilight 6:43 AM PDT 6:33 PM PDT
Nautical Twilight 6:14 AM PDT 7:02 PM PDT
Astronomical Twilight 5:44 AM PDT 7:32 PM PDT
Moon 3:49 PM PDT (10/25) 3:19 AM PDT (10/25)
Length of Visible Light 11h 49m
Length of Day
10h 57m
Waxing Gibbous, 85% of the Moon is Illuminated
Oct 25
Waxing Gibbous
Oct 29
Full
Nov 6
Last Quarter
Nov 13
New
Nov 20
First Quarter

Hourly Weather History & Observations

Time (PDT) Temp. Windchill Dew Point Humidity Pressure Visibility Wind Dir Wind Speed Gust Speed Precip Events Conditions
12:48 AM 42.1 °F 32.1 °F 33.1 °F 70% 30.11 in 10.0 mi North 25.3 mph 38.0 mph N/A   Clear
1:48 AM 42.1 °F 31.9 °F 33.1 °F 70% 30.12 in 10.0 mi North 26.5 mph 36.8 mph N/A   Clear
2:48 AM 41.0 °F 30.7 °F 33.1 °F 73% 30.13 in 10.0 mi North 25.3 mph 33.4 mph N/A   Clear
3:48 AM 41.0 °F 30.2 °F 33.1 °F 73% 30.10 in 10.0 mi North 27.6 mph 39.1 mph N/A   Clear
4:48 AM 39.9 °F 29.0 °F 33.1 °F 77% 30.11 in 10.0 mi North 26.5 mph 34.5 mph N/A   Clear
5:48 AM 39.9 °F 31.8 °F 34.0 °F 79% 30.13 in 10.0 mi North 15.0 mph 31.1 mph N/A   Clear
6:48 AM 39.9 °F 35.1 °F 34.0 °F 79% 30.14 in 10.0 mi Variable 6.9 mph - N/A   Clear
7:48 AM 41.0 °F 37.1 °F 34.0 °F 76% 30.15 in 10.0 mi Variable 5.8 mph - N/A   Clear
8:48 AM 44.1 °F 40.1 °F 34.0 °F 68% 30.17 in 10.0 mi Variable 6.9 mph - N/A   Clear
9:48 AM 46.9 °F - 34.0 °F 61% 30.17 in 10.0 mi North 8.1 mph - N/A   Clear
10:48 AM 50.0 °F - 30.9 °F 48% 30.16 in 10.0 mi North 9.2 mph 24.2 mph N/A   Clear
11:48 AM 51.1 °F - 30.9 °F 46% 30.15 in 10.0 mi North 15.0 mph 25.3 mph N/A   Clear
12:48 PM 54.0 °F - 30.9 °F 41% 30.13 in 10.0 mi North 11.5 mph 23.0 mph N/A   Clear
1:48 PM 54.0 °F - 30.9 °F 41% 30.10 in 10.0 mi NNW 26.5 mph 34.5 mph N/A   Clear
2:48 PM 55.9 °F - 30.9 °F 39% 30.08 in 10.0 mi North 21.9 mph 32.2 mph N/A   Clear
3:48 PM 53.1 °F - 30.9 °F 43% 30.09 in 10.0 mi North 25.3 mph 33.4 mph N/A   Clear
4:48 PM 52.0 °F - 33.1 °F 49% 30.11 in 10.0 mi NNE 8.1 mph 21.9 mph N/A   Clear
5:48 PM 48.9 °F - 34.0 °F 56% 30.11 in 10.0 mi North 9.2 mph 18.4 mph N/A   Clear
6:48 PM 46.0 °F 41.4 °F 34.0 °F 63% 30.12 in 10.0 mi NNE 9.2 mph 19.6 mph N/A   Clear
7:48 PM 46.0 °F 39.0 °F 35.1 °F 66% 30.13 in 10.0 mi NNE 17.3 mph 25.3 mph N/A   Clear
8:48 PM 45.0 °F 37.6 °F 35.1 °F 68% 30.11 in 10.0 mi North 17.3 mph 31.1 mph N/A   Clear
9:48 PM 44.1 °F 34.6 °F 36.0 °F 73% 30.12 in 10.0 mi North 26.5 mph 33.4 mph N/A   Clear
10:48 PM 46.0 °F 41.4 °F 35.1 °F 66% 30.12 in 10.0 mi North 9.2 mph 29.9 mph N/A   Clear
11:48 PM 46.0 °F 39.0 °F 34.0 °F 63% 30.12 in 10.0 mi North 17.3 mph 25.3 mph N/A   Clear